Location: Leuk
(46.3174°N, 7.6341°E)
Time: 06:29:13
(UTC+00:00)

ISS - Pass Details

Date: 09 March 2021
Orbit: 418 x 421 km, 51.6° (Epoch: 18 April)

Event Time Altitude Azimuth Distance (km) Brightness Sun altitude
Exits shadow 03:57:01 57° 4° (N) 500 -3.4 -20.8°
Maximum altitude 03:57:12 58° 21° (NNE) 493 -3.3 -20.8°
Drops below altitude 10° 04:00:32 10° 102° (ESE) 1,496 -0.1 -20.2°
Sets 04:02:39 0° 106° (ESE) 2,358 1.0 -19.9°
